Location: Brantley
(31.5822°N, 86.2569°W)
Time: 05:54:03
(UTC+00:00)

Courier 1B Rocket - Pass Details

Date: 16 February 2026
Orbit: 920 x 1201 km, 28.2° (Epoch: 5 March)

Event Time Altitude Azimuth Distance (km) Brightness Sun altitude
Rises 05:53:15 0° 273° (W) 3,721 - -70.7°
Reaches altitude 10° 05:55:57 10° 267° (W) 2,810 - -70.7°
Maximum altitude 06:02:28 46° 197° (SSW) 1,412 - -70.7°
Drops below altitude 10° 06:09:27 10° 126° (SE) 3,005 - -70.6°
Sets 06:12:27 0° 120° (ESE) 4,001 - -70.5°
